[[{"header":{"parameterUnit":"m.s-1","parameterCategory":1,"la1":30.2991,"la2":30.254,"lo1":-89.0895,"lo2":-89.0444,"dy":0.0017,"dx":0.0017,"nx":28,"ny":28,"refTime":"2025-05-28T09:00:00:Z","depth":0,"parameterNumber":2,"parameterNumberName":"U-component_of_WINDS"},"data":[0,0,0,0,0,0,0,0,0,0,0,0,0,0,0,0,0,0,0,0,0,0,0,0,0,0,0,0,0,0,0,0,0,0,0,0,0,0,0,0,0,0,0,0,0,0,0,0,0,0,0,0,0,0,0,0,0,0,-4.7682,-4.7681,0,-4.7624,-4.7623,-4.7622,-4.7469,-4.7466,-4.7463,-4.7459,-4.7402,-4.7403,-4.7405,0,0,0,0,0,0,0,0,0,0,0,0,0,-4.7662,-4.7663,-4.7682,-4.7681,-4.768,-4.7624,-4.7623,-4.7622,-4.747,-4.7466,-4.7462,-4.7458,-4.7401,-4.7403,-4.7405,0,0,0,0,0,0,0,0,0,0,0,0,0,-4.7644,-4.7664,-4.7682,-4.7597,-4.7589,-4.7624,-4.7623,-4.7622,-4.747,-4.7466,-4.7461,-4.7456,-4.7401,-4.7403,-4.7405,-4.7518,0,0,-4.7412,-4.7413,0,0,0,0,0,0,0,0,-4.7645,-4.7645,-4.7611,-4.7603,-4.7594,-4.7548,-4.7595,-4.7587,-4.7472,-4.7516,-4.7459,-4.7454,-4.7455,-4.7452,-4.7452,-4.7515,-4.7513,-4.7413,-4.7414,-4.7415,-4.7416,0,0,0,0,0,0,0,-4.7647,-4.7647,-4.7659,-4.761,-4.76,-4.7563,-4.7555,-4.7593,-4.7514,-4.7511,-4.75,-4.7495,-4.7449,-4.7451,-4.745,-4.7512,-4.7412,-4.7414,-4.7416,-4.7417,-4.7661,-4.7666,0,0,0,0,0,0,-4.766,-4.7649,-4.7661,-4.7657,-4.7608,-4.7567,-4.7558,-4.7568,-4.7513,-4.75,-4.75,-4.7488,-4.7449,-4.7447,-4.7447,-4.7572,-4.7415,-4.7417,-4.7418,-4.7656,-4.7662,-4.7668,0,0,0,0,0,0,-4.766,-4.7663,-4.7663,-4.765,-4.7647,-4.7573,-4.7585,-4.757,-4.757,-4.7504,-4.7489,-4.7515,-4.7445,-4.7444,-4.75,-4.7568,-4.7418,-4.742,-4.765,-4.7658,-4.7665,-4.7825,0,0,0,0,0,0,-4.766,-4.7664,-4.7705,-4.7652,-4.7648,-4.7718,-4.7589,-4.7572,-4.7574,-4.7559,-4.7514,-4.7502,-4.7441,-4.7498,-4.7503,-4.7569,-4.7422,-4.7643,-4.7653,-4.7662,-4.7814,-4.7838,-4.7858,0,0,0,0,0,-4.766,-4.7754,-4.7708,-4.771,-4.7699,-4.7722,-4.772,-4.7647,-4.7581,-4.7622,-4.7579,-4.7504,-4.7561,-4.7505,-4.7509,-4.7577,-4.7639,-4.7651,-4.7662,-4.7804,-4.7833,-4.7858,0,0,0,0,0,0,-4.7818,-4.7745,-4.7694,-4.7773,-4.7755,-4.7696,-4.7745,-4.7681,-4.7681,-4.7667,-4.7577,-4.7569,-4.7637,-4.7613,-4.7552,-4.7681,-4.7587,-4.76,-4.7694,-4.7721,-4.7743,-4.7746,-4.7424,0,0,0,0,0,-4.7863,-4.7887,-4.7822,-4.7898,-4.7891,-4.7821,-4.7828,-4.7773,-4.7751,-4.7742,-4.7703,-4.7685,-4.7698,-4.7709,-4.7718,-4.7811,-4.7797,-4.7859,-4.7881,-4.79,-4.7911,-4.7955,-4.7981,-4.7705,-4.7705,-4.7705,0,0,-4.7954,-4.7917,-4.7938,-4.7929,-4.7908,-4.7935,-4.7815,-4.7849,-4.7867,-4.7748,-4.7797,-4.7769,-4.7742,-4.7816,-4.7847,-4.7798,-4.7985,-4.7915,-4.793,-4.7931,-4.797,-4.7996,-4.8019,-4.7713,-4.7712,-4.771,0,0,-4.8133,-4.8109,-4.8167,-4.8149,-4.8118,-4.8071,-4.8085,-4.8036,-4.8012,-4.806,-4.797,-4.7992,-4.8018,-4.8001,-4.7996,-4.8169,-4.8099,-4.8175,-4.829,-4.8334,-4.8356,-4.8374,-4.8433,-4.8455,-4.8187,-4.8187,-4.8188,0,-4.825,-4.8286,-4.8207,-4.8245,-4.8243,-4.8136,-4.8194,-4.818,-4.8155,-4.8156,-4.8102,-4.813,-4.8105,-4.8173,-4.8215,-4.8216,-4.8228,-4.8178,-4.8359,-4.8377,-4.8393,-4.8448,-4.847,-4.8196,-4.8195,-4.8194,-4.8194,0,-4.843,-4.8456,-4.8508,-4.8484,-4.8488,-4.8538,-4.8465,-4.848,-4.8425,-4.8383,-4.8433,-4.8399,-4.8398,-4.8411,-4.8359,-4.8471,-4.8441,-4.8375,-4.8278,-4.843,-4.8479,-4.85,-4.821,-4.8206,-4.8204,-4.8201,0,0,-4.8705,-4.8636,-4.8656,-4.8643,-4.8601,-4.862,-4.8665,-4.8662,-4.8674,-4.8662,-4.8695,-4.8719,-4.8656,-4.8651,-4.8597,-4.8636,-4.8771,-4.8564,-4.8562,-4.8601,-4.8889,-4.8936,-4.8962,-4.8726,-4.8729,-4.8732,-4.889,0,-4.887,-4.8939,-4.887,-4.8953,-4.8975,-4.8873,-4.8911,-4.889,-4.8853,-4.8866,-4.8825,-4.8841,-4.876,-4.8755,-4.879,-4.8747,-4.8827,-4.8736,-4.8754,-4.8756,-4.876,-4.8988,-4.9039,-4.9189,-4.8909,-4.8912,-4.8915,0,-4.9072,-4.9066,-4.9152,-4.9102,-4.9109,-4.9144,-4.9135,-4.915,-4.9124,-4.9094,-4.9088,-4.9021,-4.906,-4.8969,-4.902,-4.896,-4.8963,-4.8944,-4.8948,-4.8944,-4.8842,-4.8987,-4.9236,-4.9257,-4.8945,-4.8943,-4.8941,0,-4.926,-4.9274,-4.9325,-4.9318,-4.9263,-4.929,-4.9268,-4.9237,-4.924,-4.9233,-4.9233,-4.9232,-4.9231,-4.9231,-4.9166,-4.9106,-4.9225,-4.9128,-4.9199,-4.9201,-4.9226,-4.9225,-4.9475,-4.9236,-4.9235,-4.9235,-4.9234,0,-4.9449,-4.9505,-4.9408,-4.944,-4.9499,-4.9419,-4.9479,-4.9447,-4.942,-4.9444,-4.9358,-4.9382,-4.9296,-4.9311,-4.926,-4.9309,-4.931,-4.9286,-4.9271,-4.9291,-4.9294,-4.929,-4.9276,-4.9241,-4.9239,-4.9238,-4.9237,0,-4.9667,-4.9605,-4.9654,-4.9598,-4.9586,-4.9631,-4.9583,-4.961,-4.9567,-4.9597,-4.96,-4.9533,-4.9545,-4.9481,-4.9484,-4.9449,-4.9522,-4.9492,-4.953,-4.952,-4.9593,-4.9585,-4.9846,-4.9875,-4.9621,-4.9624,-4.9626,0,-4.9791,-4.983,-4.9778,-4.9787,-4.977,-4.9786,-4.9787,-4.9711,-4.9716,-4.9688,-4.9718,-4.9724,-4.9724,-4.9749,-4.9701,-4.9701,-4.9668,-4.976,-4.9667,-4.9686,-4.9665,-4.9662,-4.9664,-4.9778,-4.9781,-4.9783,-4.9786,0,-5.0015,-4.9982,-4.9987,-4.9982,-4.9986,-4.9978,-4.9965,-4.9977,-4.9894,-4.9905,-4.9916,-4.9916,-4.9917,-4.9923,-4.9914,-4.9892,-4.9825,-4.9815,-4.9831,-4.985,-4.9869,-4.9856,-4.9579,-4.9809,-4.9806,-4.9805,-4.9804,-4.9803,-5.0186,-5.0216,-5.0183,-5.0191,-5.0173,-5.0162,-5.0184,-5.0143,-5.0151,-5.0145,-5.01,-5.0119,-5.0091,-5.0071,-5.0056,-5.007,-5.0026,-5.005,-5.0055,-5.0062,-5.0073,-4.9871,-5.0068,-5.0068,-5.0067,-5.0066,-5.0066,0,-5.0403,-5.0377,-5.0385,-5.0368,-5.0375,-5.0311,-5.0293,-5.0302,-5.032,-5.03,-5.0301,-5.0313,-5.0319,-5.0271,-5.0269,-5.029,-5.0259,-5.0292,-5.0288,-5.0283,-5.0114,-5.0098,-5.0317,-5.0317,-5.0317,-5.0316,-5.0316,-5.0316,-5.0516,-5.0562,-5.0525,-5.0561,-5.0534,-5.0551,-5.0546,-5.0535,-5.0517,-5.0535,-5.0538,-5.0507,-5.0475,-5.047,-5.0472,-5.0458,-5.046,-5.0503,-5.0478,-5.032,-5.0295,-5.0272,-5.0257,-5.0505,-5.0505,-5.0645,-5.0647,-5.0648]},{"header":{"parameterUnit":"m.s-1","parameterCategory":1,"la1":30.2991,"la2":30.254,"lo1":-89.0895,"lo2":-89.0444,"dy":0.0017,"dx":0.0017,"nx":28,"ny":28,"refTime":"2025-05-28T09:00:00:Z","depth":0,"parameterNumber":3,"parameterNumberName":"V-component_of_WINDS"},"data":[0,0,0,0,0,0,0,0,0,0,0,0,0,0,0,0,0,0,0,0,0,0,0,0,0,0,0,0,0,0,0,0,0,0,0,0,0,0,0,0,0,0,0,0,0,0,0,0,0,0,0,0,0,0,0,0,0,0,2.267,2.2671,0,2.2748,2.2749,2.275,2.28,2.28,2.28,2.2801,2.2875,2.2877,2.2878,0,0,0,0,0,0,0,0,0,0,0,0,0,2.256,2.2561,2.267,2.2671,2.2672,2.2748,2.2749,2.275,2.28,2.28,2.28,2.2801,2.2874,2.2876,2.2878,0,0,0,0,0,0,0,0,0,0,0,0,0,2.2619,2.2562,2.267,2.2706,2.271,2.2748,2.2749,2.275,2.2799,2.28,2.28,2.2801,2.2874,2.2876,2.2879,2.2885,0,0,2.2886,2.2888,0,0,0,0,0,0,0,0,2.2616,2.2623,2.27,2.2704,2.2708,2.2765,2.2737,2.2795,2.2799,2.2765,2.2801,2.2801,2.2838,2.2843,2.2856,2.2888,2.2891,2.2887,2.2888,2.2889,2.289,0,0,0,0,0,0,0,2.2612,2.262,2.2701,2.2701,2.2706,2.2717,2.2726,2.2748,2.2798,2.2768,2.2772,2.2781,2.284,2.2854,2.2859,2.2892,2.2887,2.2889,2.289,2.2891,2.2932,2.2932,0,0,0,0,0,0,2.2602,2.2616,2.2698,2.2703,2.2662,2.2718,2.2729,2.2746,2.2798,2.2806,2.2781,2.2783,2.2849,2.2856,2.2861,2.2871,2.2889,2.2892,2.2893,2.2933,2.2932,2.2932,0,0,0,0,0,0,2.26,2.2609,2.2695,2.2661,2.2673,2.272,2.2739,2.2747,2.2761,2.2807,2.2815,2.2786,2.285,2.2858,2.2879,2.2874,2.2893,2.2895,2.2933,2.2933,2.2932,2.2891,0,0,0,0,0,0,2.2597,2.2608,2.2612,2.2661,2.2674,2.2712,2.2739,2.2748,2.2766,2.277,2.2814,2.2822,2.2851,2.2875,2.2881,2.2878,2.2897,2.2934,2.2933,2.2932,2.2893,2.2889,2.2886,0,0,0,0,0,2.2592,2.2596,2.2612,2.2621,2.268,2.2712,2.272,2.2754,2.2766,2.2769,2.2798,2.2821,2.2874,2.2876,2.2884,2.2882,2.2934,2.2933,2.2932,2.2895,2.289,2.2886,0,0,0,0,0,0,2.2544,2.2603,2.2621,2.2641,2.2671,2.272,2.2726,2.2748,2.2775,2.2777,2.2818,2.2827,2.2844,2.2865,2.2867,2.289,2.2907,2.2907,2.2875,2.2871,2.2868,2.2861,2.2899,0,0,0,0,0,2.2536,2.2558,2.2608,2.2621,2.2635,2.2678,2.2693,2.2718,2.275,2.2762,2.2793,2.2822,2.2845,2.286,2.2884,2.2897,2.2906,2.2899,2.2895,2.2892,2.2892,2.2899,2.2896,2.2929,2.2929,2.2929,0,0,2.2518,2.2554,2.2565,2.2612,2.2638,2.2659,2.2688,2.2709,2.2724,2.2765,2.2787,2.281,2.2845,2.2862,2.2871,2.288,2.2885,2.2891,2.2888,2.2889,2.2898,2.2895,2.2892,2.2928,2.2928,2.2928,0,0,2.2497,2.2527,2.2541,2.2567,2.2607,2.2636,2.2639,2.2685,2.2703,2.2726,2.2757,2.2775,2.2814,2.2838,2.2855,2.2844,2.2865,2.2851,2.2831,2.2838,2.2835,2.2833,2.2828,2.2826,2.285,2.285,2.285,0,2.247,2.2504,2.2544,2.2564,2.2583,2.2623,2.2636,2.2659,2.2704,2.2715,2.2726,2.2777,2.2803,2.2826,2.2823,2.2836,2.284,2.2845,2.2833,2.2831,2.283,2.2825,2.2823,2.2848,2.2848,2.2849,2.2849,0,2.2468,2.2492,2.2498,2.2542,2.2562,2.2578,2.2619,2.2634,2.2657,2.2684,2.2707,2.274,2.2771,2.2779,2.2801,2.2804,2.2809,2.2826,2.2843,2.2824,2.282,2.2819,2.2845,2.2846,2.2846,2.2847,0,0,2.2417,2.2485,2.2486,2.2507,2.2555,2.2572,2.259,2.2623,2.2634,2.2664,2.2679,2.2712,2.2728,2.2748,2.2773,2.2779,2.2767,2.2795,2.2796,2.2787,2.2771,2.2757,2.2755,2.2782,2.2782,2.2781,2.2768,0,2.2402,2.2437,2.2474,2.2495,2.2517,2.2555,2.2571,2.26,2.2626,2.2647,2.2675,2.2697,2.2718,2.2729,2.2738,2.2766,2.2764,2.2768,2.2793,2.2794,2.2782,2.2753,2.2738,2.2723,2.2767,2.2767,2.2767,0,2.2389,2.2419,2.2443,2.2489,2.2499,2.2512,2.2545,2.2565,2.26,2.2618,2.264,2.2667,2.2686,2.2702,2.2728,2.273,2.2743,2.2758,2.2759,2.2761,2.2778,2.2753,2.272,2.2717,2.2765,2.2765,2.2765,0,2.2347,2.2394,2.2414,2.2431,2.2485,2.2493,2.2516,2.2552,2.2569,2.2597,2.2608,2.2638,2.2653,2.2675,2.2708,2.2718,2.273,2.2749,2.2744,2.2743,2.2743,2.2742,2.271,2.2754,2.2754,2.2754,2.2754,0,2.2325,2.2338,2.2396,2.2408,2.2423,2.2465,2.2479,2.2505,2.2536,2.2553,2.2588,2.2603,2.2647,2.2667,2.2693,2.271,2.2717,2.2731,2.2737,2.2727,2.2724,2.2734,2.2735,2.2754,2.2754,2.2754,2.2754,0,2.228,2.232,2.2344,2.2395,2.2408,2.2417,2.2459,2.2472,2.2501,2.2521,2.2529,2.2573,2.2597,2.2634,2.2669,2.2687,2.2699,2.271,2.2687,2.2691,2.2683,2.2682,2.2654,2.2652,2.2699,2.2698,2.2698,0,2.2263,2.2274,2.2326,2.2341,2.2363,2.2386,2.2405,2.2447,2.2464,2.2505,2.2512,2.254,2.2565,2.2602,2.2636,2.2663,2.2675,2.2663,2.2679,2.2668,2.2673,2.2671,2.2671,2.2659,2.2658,2.2657,2.2657,0,2.2227,2.2246,2.2273,2.2306,2.2327,2.2355,2.2384,2.2393,2.2441,2.2458,2.2486,2.2505,2.2542,2.2569,2.2601,2.2623,2.2647,2.2652,2.2652,2.264,2.2626,2.2632,2.2675,2.2652,2.2652,2.2653,2.2653,2.2653,2.2194,2.2205,2.2244,2.2272,2.2299,2.2326,2.234,2.2371,2.2395,2.243,2.2453,2.2478,2.2513,2.2559,2.2579,2.2599,2.2609,2.2609,2.2609,2.2607,2.2603,2.2625,2.2605,2.2605,2.2605,2.2605,2.2605,0,2.2158,2.2186,2.2212,2.2252,2.2274,2.2298,2.2332,2.2347,2.237,2.2401,2.2425,2.2455,2.2482,2.2519,2.2548,2.2556,2.2568,2.2562,2.256,2.2565,2.2593,2.259,2.2552,2.2552,2.2552,2.2552,2.2552,2.2552,2.2142,2.2163,2.2187,2.2221,2.2248,2.2275,2.2292,2.2316,2.2341,2.2374,2.2397,2.2422,2.2455,2.2487,2.2512,2.2522,2.253,2.252,2.2533,2.2558,2.2563,2.2567,2.2564,2.2522,2.2522,2.2503,2.2503,2.2503]}]]